Regional Weather Roundup
Issued by NWS Cleveland, OH

Home | Current Version | Previous Version | Text Only | Print | Product List | Glossary Off
Versions: 1 2 3 4 5 6 7 8 9 10 11 12 13 14 15 16 17 18 19 20 21 22 23 24 25 26 27 28 29 30 31 32 33 34 35 36 37 38 39 40 41 42 43 44 45 46 47 48 49 50

680
ASUS41 KCLE 132112
RWRCLE
OHIO REGIONAL WEATHER ROUNDUP
NATIONAL WEATHER SERVICE WILMINGTON, OH
400 PM EST SAT FEB 13 2016

NOTE: "FAIR" INDICATES FEW OR NO CLOUDS BELOW 12,000 FEET WITH NO
SIGNIFICANT WEATHER AND/OR OBSTRUCTIONS TO VISIBILITY.

OHZ001>008-015>018-024>027-034-035-043-044-132200-
   NORTHWEST OHIO

CITY           SKY/WX    TMP DP  RH WIND       PRES   REMARKS
DEFIANCE       CLOUDY    17   6  62 NW12      30.46S WCI   4
FINDLAY        CLOUDY    17   4  56 W15       30.44F WCI   2
TOLEDO EXPRESS CLOUDY    15   4  61 NW10      30.44S WCI   2
TOLEDO EXEC    CLOUDY    17   4  56 NW12      30.46R WCI   4
LIMA           PTSUNNY   15   8  73 W13       30.44S WCI   1
$$

OHZ009>014-019>023-028>033-038-089-132200-
   NORTHEAST OHIO

CITY           SKY/WX    TMP DP  RH WIND       PRES   REMARKS
CLE-HOPKINS    FLURRIES  13   1  59 NW15      30.45R WCI  -3
CLE-LAKEFRONT  CLOUDY    15   4  61 NW20      30.42F HAZE    WCI  -2
CUY CO. ARPT   FLURRIES  14   1  57 NW16G25   30.40S WCI  -2
LORAIN-ELYRIA  CLOUDY    14  -1  51 NW16G24   30.43S WCI  -2
ASHTABULA      LGT SNOW   9  -4  55 NW17G26   30.38R WCI  -9
AKRON-CANTON   LGT SNOW   9   0  67 W14G22    30.38R WCI  -7
WOOSTER        PTSUNNY   13   0  56 NW17      30.40S WCI  -4
MANSFIELD      FLURRIES  11   4  73 NW9       30.39R WCI  -2
YOUNGSTOWN     LGT SNOW   9  -1  64 NW15G29   30.34S BLWGSNOWWCI  -8
$$

OHZ042-051>053-060>062-070>072-077>081-132200-
  SOUTHWEST OHIO

CITY           SKY/WX    TMP DP  RH WIND       PRES   REMARKS
CINC-COVINGTON FAIR      19   0  43 NW7       30.49F WCI  10
CINC-LUNKEN    FAIR      20   0  41 N10       30.54S WCI   9
HAMILTON       PTSUNNY   19   2  47 W8        30.53F WCI   9
DAYTON         PTSUNNY   14   2  58 NW13      30.48F WCI   0
WRIGHT-PAT AFB NOT AVBL
DAYTON GENERAL PTSUNNY   15  -1  49 NW9       30.48S WCI   3
WILMINGTON     FAIR      15  -2  46 NW12      30.47S WCI   2
$$

OHZ036-037-039>041-045>050-054>059-063>069-073>076-082>088-132200-
  CENTRAL AND SOUTHEAST OHIO

CITY           SKY/WX    TMP DP  RH WIND       PRES   REMARKS
COLUMBUS       CLOUDY    14  -2  49 W14       30.47R WCI  -1
OSU AIRPORT    PTSUNNY   14  -1  51 W14       30.46S WCI  -1
BOLTON FIELD   CLOUDY    14   3  62 NW7       30.48S WCI   4
RICKENBACK AFB CLOUDY    14   1  55 W14       30.48S WCI   0
NEWARK         CLOUDY    15   1  53 W12       30.44S WCI   2
MARION         CLOUDY    15   0  51 NW14      30.43F WCI   0
LANCASTER      CLOUDY    15   0  51 W14G20    30.47S WCI   0
ZANESVILLE     CLOUDY    14   1  56 NW13      30.44S WCI   0
NEW PHILLY     FAIR      12  -4  48 NW12G24   30.44R WCI  -2
$$




USA.gov is the U.S. government's official web portal to all federal, state and local government web resources and services.